N3LF Weather Reports


time (UTC)temp
F
wind
direction
speed
knots
gust
knots
rain 1hr
in
rain 24hr
in
rain mn
in
humidity
%
barometer
mb
20260510010020 68 232 0.0 0.0 0.00 0.00 0.00 60 1013.6
20260510005515 69 238 0.0 0.0 0.00 0.00 0.00 59 1013.6
20260510005013 69 243 0.0 0.9 0.00 0.00 0.00 59 1013.5
20260510004511 70 237 0.0 0.0 0.00 0.00 0.00 57 1013.5
20260510004009 71 238 0.0 0.0 0.00 0.00 0.00 55 1013.4
20260510003505 71 237 0.0 0.0 0.00 0.00 0.00 56 1013.3
20260510003000 72 237 0.0 0.0 0.00 0.00 0.00 57 1013.2
20260510002456 73 237 0.0 0.0 0.00 0.00 0.00 54 1013.1
20260510001953 74 239 0.0 0.0 0.00 0.00 0.00 54 1013.3
20260510001450 76 238 0.0 0.0 0.00 0.00 0.00 52 1013.1
20260510000948 78 247 0.0 0.0 0.00 0.00 0.00 49 1013.2
20260510000444 79 245 0.0 0.0 0.00 0.00 0.00 46 1013.2
20260509235940 78 245 0.0 0.0 0.00 0.00 0.00 45 1013.1
20260509235437 79 245 0.0 0.0 0.00 0.00 0.00 44 1013.2
20260509234933 79 245 0.0 0.0 0.00 0.00 0.00 44 1013.2
20260509234430 79 236 0.0 0.9 0.00 0.00 0.00 44 1013.1
20260509233929 80 237 0.0 0.0 0.00 0.00 0.00 44 1012.9
20260509233426 80 249 0.0 0.9 0.00 0.00 0.00 42 1013.0
20260509232922 80 223 0.0 0.0 0.00 0.00 0.00 40 1013.0
20260509232420 80 223 0.0 0.0 0.00 0.00 0.00 39 1013.0
20260509231915 80 223 0.9 0.9 0.00 0.00 0.00 42 1012.9
20260509231412 80 223 0.9 0.9 0.00 0.00 0.00 41 1013.1
20260509230910 80 200 0.9 2.6 0.00 0.00 0.00 42 1013.1
20260509230407 81 226 2.6 2.6 0.00 0.00 0.00 40 1013.0
20260509225902 82 236 0.9 0.9 0.00 0.00 0.00 40 1013.2
20260509225359 81 236 0.0 0.9 0.00 0.00 0.00 39 1013.0
20260509224855 82 227 0.9 2.6 0.00 0.00 0.00 39 1013.1
20260509224351 80 201 1.7 2.6 0.00 0.00 0.00 39 1013.2
20260509223849 80 231 1.7 1.7 0.00 0.00 0.00 38 1013.0
20260509223345 82 227 0.9 1.7 0.00 0.00 0.00 40 1012.9
20260509222842 82 303 0.9 2.6 0.00 0.00 0.00 40 1013.1
20260509222337 81 242 0.9 1.7 0.00 0.00 0.00 40 1013.0
20260509221833 80 246 0.0 1.7 0.00 0.00 0.00 39 1012.9
20260509221331 81 291 0.9 5.2 0.00 0.00 0.00 42 1012.9
20260509220831 81 286 0.9 2.6 0.00 0.00 0.00 41 1012.9
20260509220327 84 178 1.7 2.6 0.00 0.00 0.00 39 1012.7
20260509215823 83 259 0.0 0.9 0.00 0.00 0.00 41 1012.7
20260509215320 82 100 0.9 2.6 0.00 0.00 0.00 42 1012.8
20260509214816 81 252 0.9 2.6 0.00 0.00 0.00 41 1012.8
20260509214314 83 206 2.6 2.6 0.00 0.00 0.00 41 1012.6
20260509213811 84 298 0.9 1.7 0.00 0.00 0.00 43 1012.6
20260509213306 82 233 0.9 0.9 0.00 0.00 0.00 43 1012.5
20260509212804 81 208 0.9 0.9 0.00 0.00 0.00 41 1012.7
20260509212301 81 245 0.9 1.7 0.00 0.00 0.00 43 1012.5
20260509211756 81 226 1.7 2.6 0.00 0.00 0.00 44 1012.6
20260509211253 79 267 0.0 1.7 0.00 0.00 0.00 44 1012.6
20260509210750 80 211 0.9 1.7 0.00 0.00 0.00 42 1012.7
20260509210248 81 237 0.9 2.6 0.00 0.00 0.00 42 1012.6
20260509205747 81 274 0.9 2.6 0.00 0.00 0.00 43 1012.4
20260509205242 83 347 0.9 1.7 0.00 0.00 0.00 41 1012.4
20260509204738 82 228 0.0 2.6 0.00 0.00 0.00 46 1012.4
20260509204234 81 236 0.9 2.6 0.00 0.00 0.00 43 1012.4
20260509203730 82 311 2.6 2.6 0.00 0.00 0.00 43 1012.8
20260509203229 81 220 0.0 3.5 0.00 0.00 0.00 43 1012.7
20260509202724 79 231 0.0 1.7 0.00 0.00 0.00 47 1012.6
20260509202220 78 228 3.5 5.2 0.00 0.00 0.00 44 1012.8
20260509201715 80 354 2.6 3.5 0.00 0.00 0.00 44 1012.6
20260509201212 81 240 1.7 7.0 0.00 0.00 0.00 45 1012.8
20260509200708 80 285 0.9 1.7 0.00 0.00 0.00 44 1012.8
20260509200203 78 232 0.9 1.7 0.00 0.00 0.00 48 1013.0
20260509195659 82 338 2.6 5.2 0.00 0.00 0.00 43 1012.9
20260509195155 79 299 1.7 3.5 0.00 0.00 0.00 44 1013.1
20260509194654 80 220 0.0 2.6 0.00 0.00 0.00 44 1013.2
20260509194152 79 206 1.7 1.7 0.00 0.00 0.00 46 1013.3
20260509193648 79 351 1.7 3.5 0.00 0.00 0.00 43 1013.2
20260509193143 80 216 0.0 2.6 0.00 0.00 0.00 47 1013.4
20260509192640 79 133 0.9 2.6 0.00 0.00 0.00 46 1013.4
20260509192135 78 337 4.3 5.2 0.00 0.00 0.00 48 1013.4
20260509191635 78 270 2.6 5.2 0.00 0.00 0.00 50 1013.3
20260509191132 78 200 2.6 3.5 0.00 0.00 0.00 52 1013.5
20260509190629 79 247 2.6 5.2 0.00 0.00 0.00 49 1013.5
20260509190126 82 96 3.5 5.2 0.00 0.00 0.00 46 1013.5
20260509185624 82 220 0.9 2.6 0.00 0.00 0.00 48 1013.4
20260509185119 79 35 0.9 1.7 0.00 0.00 0.00 50 1013.5
20260509184618 77 252 0.9 1.7 0.00 0.00 0.00 51 1013.4
20260509184114 76 234 4.3 7.0 0.00 0.00 0.00 52 1013.5
20260509183610 78 242 2.6 3.5 0.00 0.00 0.00 53 1013.3
20260509183106 78 285 3.5 6.1 0.00 0.00 0.00 53 1013.3
20260509182602 77 284 0.0 1.7 0.00 0.00 0.00 53 1013.3
20260509182059 78 252 1.7 5.2 0.00 0.00 0.00 56 1013.3
20260509181557 76 232 0.9 1.7 0.00 0.00 0.00 54 1013.3
20260509181054 75 199 0.0 3.5 0.00 0.00 0.00 54 1013.3
20260509180550 80 347 6.1 7.0 0.00 0.00 0.00 52 1013.4
20260509180048 79 205 0.0 0.9 0.00 0.00 0.00 55 1013.4
20260509175543 74 226 0.0 1.7 0.00 0.00 0.00 62 1013.2
20260509175040 75 322 0.9 2.6 0.00 0.00 0.00 56 1013.4
20260509174536 75 81 1.7 1.7 0.00 0.00 0.00 58 1013.4
20260509174032 74 240 0.9 1.7 0.00 0.00 0.00 60 1013.2
20260509173526 73 225 1.7 1.7 0.00 0.00 0.00 63 1013.3
20260509173023 76 258 1.7 3.5 0.00 0.00 0.00 58 1013.3
20260509172520 76 215 0.0 0.9 0.00 0.00 0.00 58 1013.4
20260509172015 75 217 0.9 1.7 0.00 0.00 0.00 60 1013.8
20260509171512 75 314 2.6 5.2 0.00 0.00 0.00 62 1013.5
20260509171009 72 39 1.7 3.5 0.00 0.00 0.00 64 1013.4
20260509170504 73 54 3.5 7.0 0.00 0.00 0.00 63 1013.5
20260509165959 73 27 1.7 5.2 0.00 0.00 0.00 62 1013.5
20260509165459 73 211 2.6 2.6 0.00 0.00 0.00 66 1013.6
20260509164955 74 331 1.7 3.5 0.00 0.00 0.00 62 1013.5
20260509164451 73 315 2.6 5.2 0.00 0.00 0.00 65 1013.6
20260509163947 72 352 1.7 6.1 0.00 0.00 0.00 65 1013.8
20260509163445 72 353 2.6 2.6 0.00 0.00 0.00 67 1013.8
20260509162943 71 72 1.7 2.6 0.00 0.00 0.00 65 1013.6
20260509162443 71 38 1.7 3.5 0.00 0.00 0.00 67 1013.7
20260509161938 73 203 1.7 2.6 0.00 0.00 0.00 66 1013.7
20260509161434 72 241 2.6 3.5 0.00 0.00 0.00 68 1013.7
20260509160930 72 9 2.6 3.5 0.00 0.00 0.00 67 1013.5
20260509160426 70 272 1.7 5.2 0.00 0.00 0.00 69 1013.5
20260509155921 72 244 0.9 2.6 0.00 0.00 0.00 68 1013.5
20260509155418 70 229 0.9 6.1 0.00 0.00 0.00 70 1013.5
20260509154915 71 338 3.5 5.2 0.00 0.00 0.00 70 1013.5
20260509154411 73 106 0.9 1.7 0.00 0.00 0.00 67
20260509153908 69 66 0.0 3.5 0.00 0.00 0.00 71
20260509153405 70 158 0.9 2.6 0.00 0.00 0.00 72
20260509152902 69 149 0.0 1.7 0.00 0.00 0.00 74
20260509152358 68 14 1.7 6.1 0.00 0.00 0.00 75
20260509151855 70 278 2.6 5.2 0.00 0.00 0.00 74
20260509151351 68 294 0.9 2.6 0.00 0.00 0.00 76
20260509150850 67 293 4.3 6.1 0.00 0.00 0.00 78
20260509150347 68 198 0.9 1.7 0.00 0.00 0.00 77
20260509145844 67 195 1.7 5.2 0.00 0.00 0.00 78
20260509145338 67 270 2.6 3.5 0.00 0.00 0.00 78
20260509144835 66 6 1.7 2.6 0.00 0.00 0.00 79
20260509144332 66 250 4.3 5.2 0.00 0.00 0.00 78 1013.1
20260509143829 65 253 1.7 5.2 0.00 0.00 0.00 80 1013.1
20260509143327 65 304 3.5 3.5 0.00 0.00 0.00 81 1013.1
20260509142823 66 220 2.6 3.5 0.00 0.00 0.00 81 1013.1
20260509142319 65 271 2.6 3.5 0.00 0.00 0.00 81 1013.1
20260509141815 64 352 1.7 2.6 0.00 0.00 0.00 83 1013.1
20260509141312 63 231 4.3 6.1 0.00 0.00 0.00 84 1013.1
20260509140808 64 306 3.5 3.5 0.00 0.00 0.00 84 1013.1
20260509140306 64 196 0.9 2.6 0.00 0.00 0.00 83 1013.1
20260509135803 64 196 1.7 2.6 0.00 0.00 0.00 84 1013.1
20260509135301 64 50 0.9 3.5 0.00 0.00 0.00 85 1013.1
20260509134758 64 303 3.5 6.1 0.00 0.00 0.00 83 1013.1
20260509134255 64 196 1.7 2.6 0.00 0.00 0.00 85 1013.1
20260509133752 63 304 1.7 5.2 0.00 0.00 0.00 85 1012.8
20260509133248 62 331 3.5 6.1 0.00 0.00 0.00 86 1013.1
20260509132747 62 289 1.7 2.6 0.00 0.00 0.00 87 1012.9
20260509132246 62 277 0.9 1.7 0.00 0.00 0.00 87 1012.9
20260509131742 62 280 1.7 3.5 0.00 0.00 0.00 87 1012.9
20260509131239 62 239 1.7 3.5 0.00 0.00 0.00 87 1012.9
20260509130735 62 133 1.7 2.6 0.00 0.00 0.00 86 1012.8
20260509130230 62 256 1.7 2.6 0.00 0.00 0.00 87 1013.0
20260509125727 62 265 1.7 2.6 0.00 0.00 0.00 87 1012.9
20260509125225 61 184 0.9 1.7 0.00 0.00 0.00 88 1012.7
20260509124721 61 199 2.6 2.6 0.00 0.00 0.00 88 1013.0
20260509124217 60 205 0.9 3.5 0.00 0.00 0.00 90 1012.8
20260509123716 60 226 0.9 1.7 0.00 0.00 0.00 91 1012.7
20260509123212 59 211 0.0 0.9 0.00 0.00 0.00 92 1012.7
20260509122708 59 200 0.0 0.9 0.00 0.00 0.00 90 1012.8
20260509122205 59 232 0.0 0.9 0.00 0.00 0.00 90 1012.7
20260509121702 58 229 0.0 0.9 0.00 0.00 0.00 92 1012.4
20260509121200 58 49 0.9 2.6 0.00 0.00 0.00 93 1012.4
20260509120658 58 191 0.0 0.0 0.00 0.00 0.00 92 1012.3
20260509120155 57 191 0.0 0.0 0.00 0.00 0.00 93 1012.2
20260509115653 56 185 0.0 0.9 0.00 0.00 0.00 94 1012.2
20260509115150 57 224 0.0 0.0 0.00 0.00 0.00 92 1012.1
20260509114648 56 223 0.0 0.0 0.00 0.00 0.00 94 1012.2
20260509114147 55 209 0.0 0.0 0.00 0.00 0.00 94 1011.9
20260509113645 56 223 0.0 0.0 0.00 0.00 0.00 95 1011.9
20260509113141 55 223 0.0 0.0 0.00 0.00 0.00 97 1011.9
20260509112638 54 223 0.0 0.0 0.00 0.00 0.00 98 1011.9
20260509112135 54 225 0.0 0.0 0.00 0.00 0.00 99 1011.9
20260509111632 53 225 0.0 0.0 0.00 0.00 0.00 99 1011.9
20260509111129 53 223 0.0 0.0 0.00 0.00 0.00 99 1011.8
20260509110626 53 71 0.0 0.0 0.00 0.00 0.00 99 1011.6
20260509110123 53 71 0.0 0.0 0.00 0.00 0.00 99 1011.6
20260509105621 53 71 0.0 0.0 0.00 0.00 0.00 99 1011.7
20260509105119 53 65 0.0 0.0 0.00 0.00 0.00 98 1011.7
20260509104615 53 71 0.0 0.9 0.00 0.00 0.00 98 1011.4
20260509104112 53 191 0.0 0.9 0.00 0.00 0.00 98 1011.6
20260509103610 53 229 0.0 0.9 0.00 0.00 0.00 98 1011.6
20260509103108 53 223 0.0 0.9 0.00 0.00 0.00 98 1011.4
20260509102605 53 224 0.0 0.0 0.00 0.00 0.00 97 1011.6
20260509102102 54 224 0.0 0.0 0.00 0.00 0.00 97 1011.6
20260509101558 54 225 0.0 0.0 0.00 0.00 0.00 97 1011.4
20260509101055 54 224 0.0 0.0 0.00 0.00 0.00 96 1011.7
20260509100552 54 225 0.0 0.0 0.00 0.00 0.00 96 1011.7
20260509100050 54 224 0.0 0.0 0.00 0.00 0.00 96 1011.5
20260509095546 55 225 0.0 0.0 0.00 0.00 0.00 96 1011.4
20260509095044 55 222 0.0 0.0 0.00 0.00 0.00 95 1011.4
20260509094539 55 224 0.0 0.0 0.00 0.00 0.00 95 1011.5
20260509094037 55 224 0.0 0.0 0.00 0.00 0.00 95 1011.7
20260509093535 55 224 0.0 0.0 0.00 0.00 0.00 94 1011.5
20260509093032 55 224 0.0 0.0 0.00 0.00 0.00 94 1011.7
20260509092530 56 224 0.0 0.0 0.00 0.00 0.00 94 1012.0
20260509092029 56 225 0.0 0.0 0.00 0.00 0.00 93 1011.8
20260509091526 56 224 0.0 0.0 0.00 0.00 0.00 92 1011.8
20260509091022 56 182 0.0 0.0 0.00 0.00 0.00 92 1011.9
20260509090520 56 225 0.0 0.0 0.00 0.00 0.00 93 1012.2
20260509090017 56 229 0.0 0.0 0.00 0.00 0.00 93 1012.3
20260509085514 56 226 0.0 0.0 0.00 0.00 0.00 91 1012.1
20260509085010 57 225 0.0 0.0 0.00 0.00 0.00 91 1012.3
20260509084507 57 246 0.0 0.0 0.00 0.00 0.00 91 1012.5
20260509084004 57 248 0.0 0.0 0.00 0.00 0.00 91 1012.2
20260509083502 57 223 0.0 0.0 0.00 0.00 0.00 90 1012.3
20260509082958 57 224 0.0 0.0 0.00 0.00 0.00 89 1012.3
20260509082456 57 222 0.0 0.0 0.00 0.00 0.00 88 1012.2
20260509081952 57 249 0.0 0.9 0.00 0.00 0.00 89 1012.3
20260509081450 57 223 0.0 0.9 0.00 0.00 0.00 88 1011.9
20260509080946 57 247 0.0 0.0 0.00 0.00 0.00 89 1012.2
20260509080445 57 245 0.0 0.0 0.00 0.00 0.00 89 1012.3
20260509075943 57 246 0.0 0.0 0.00 0.00 0.00 89 1012.1
20260509075439 57 246 0.0 0.0 0.00 0.00 0.00 89 1012.1
20260509074937 57 223 0.0 0.9 0.00 0.00 0.00 89 1012.1
20260509074435 57 224 0.0 0.0 0.00 0.00 0.00 89 1011.9
20260509073931 57 223 0.0 0.0 0.00 0.00 0.00 89 1011.9
20260509073427 57 238 0.0 0.0 0.00 0.00 0.00 89 1012.1
20260509072924 57 223 0.0 1.7 0.00 0.00 0.00 87 1012.1
20260509072421 57 197 0.0 0.9 0.00 0.00 0.00 86 1012.1
20260509071917 57 216 0.9 1.7 0.00 0.00 0.00 87 1012.1
20260509071414 57 234 0.0 0.0 0.00 0.00 0.00 87 1012.2
20260509070912 57 221 0.0 0.9 0.00 0.00 0.00 87 1012.2
20260509070408 57 217 0.0 0.9 0.00 0.00 0.00 87 1012.1
20260509065903 57 207 0.0 0.0 0.00 0.00 0.00 87 1012.4
20260509065400 57 233 0.0 0.0 0.00 0.00 0.00 87 1012.3
20260509064856 57 297 0.9 0.9 0.00 0.00 0.00 89 1012.3
20260509064354 57 213 0.0 0.0 0.00 0.00 0.00 88 1012.1
20260509063852 57 222 0.0 0.0 0.00 0.00 0.00 88 1012.1
20260509063347 57 218 0.0 0.0 0.00 0.00 0.00 88 1012.3
20260509062845 57 227 0.0 0.0 0.00 0.00 0.00 86 1012.5
20260509062342 58 221 0.0 0.0 0.00 0.00 0.00 86 1012.4
20260509061839 58 213 0.0 0.0 0.00 0.00 0.00 85 1012.5
20260509061337 58 217 0.0 0.9 0.00 0.00 0.00 84 1012.9
20260509060834 58 228 0.0 0.0 0.00 0.00 0.00 83 1013.0
20260509060331 58 230 0.0 0.0 0.00 0.00 0.00 85 1012.9
20260509055826 58 223 0.0 0.9 0.00 0.00 0.00 84 1012.9
20260509055321 56 219 0.9 0.9 0.00 0.00 0.00 87 1013.0
20260509054819 56 219 0.0 0.0 0.00 0.00 0.00 89 1012.9
20260509054315 56 243 0.0 0.9 0.00 0.00 0.00 88 1012.9
20260509053814 55 312 0.0 0.0 0.00 0.00 0.00 88 1013.1
20260509053311 56 226 0.0 0.0 0.00 0.00 0.00 87 1013.1
20260509052809 56 240 0.0 0.0 0.00 0.00 0.00 87 1013.2
20260509052307 56 220 0.0 0.0 0.00 0.00 0.00 86 1013.1
20260509051804 55 230 0.0 0.0 0.00 0.00 0.00 87 1013.1
20260509051302 56 232 0.0 0.0 0.00 0.00 0.00 88 1012.9
20260509050758 56 232 0.0 0.0 0.00 0.00 0.00 86 1013.1
20260509050255 56 240 0.0 0.0 0.00 0.00 0.00 84 1013.3
20260509045752 56 233 0.0 0.0 0.00 0.00 0.00 83 1013.2
20260509045248 56 257 0.0 0.0 0.00 0.00 0.00 82 1013.1
20260509044746 56 231 0.0 0.0 0.00 0.00 0.00 83 1013.0
20260509044244 56 228 0.0 0.0 0.00 0.00 0.00 84 1012.9
20260509043740 56 230 0.0 0.0 0.00 0.00 0.00 82 1012.9
20260509043236 57 230 0.0 0.0 0.00 0.00 0.00 80 1012.8
20260509042732 57 196 0.0 0.0 0.00 0.00 0.00 80 1012.9
20260509042228 57 195 0.0 0.9 0.00 0.00 0.00 78 1012.9
20260509041725 57 234 0.0 0.0 0.00 0.00 0.00 79 1012.8
20260509041222 57 230 0.0 0.0 0.00 0.00 0.00 77 1012.7
20260509040721 57 224 0.0 0.0 0.00 0.00 0.00 78 1012.7
20260509040217 56 230 0.0 0.0 0.00 0.00 0.00 81 1012.8
20260509035714 57 238 0.0 0.0 0.00 0.00 0.00 82 1013.1
20260509035211 57 230 0.0 0.0 0.00 0.00 0.00 81 1013.0
20260509034708 58 232 0.0 0.0 0.00 0.00 0.00 77 1013.0
20260509034206 58 247 0.0 0.0 0.00 0.00 0.00 74 1013.0
20260509033702 57 235 0.0 0.0 0.00 0.00 0.00 76 1013.2
20260509033159 58 231 0.0 0.0 0.00 0.00 0.00 77 1013.3
20260509032656 57 231 0.0 0.0 0.00 0.00 0.00 77 1013.0
20260509032153 57 239 0.0 0.0 0.00 0.00 0.00 80 1013.0
20260509031651 57 239 0.0 0.0 0.00 0.00 0.00 78 1013.0
20260509031148 57 239 0.0 0.0 0.00 0.00 0.00 77 1013.0
20260509030646 58 239 0.0 0.0 0.00 0.00 0.00 77 1013.1
20260509030143 58 240 0.0 0.0 0.00 0.00 0.00 76 1013.1
20260509025639 57 247 0.0 0.0 0.00 0.00 0.00 75 1013.1
20260509025135 58 239 0.0 0.0 0.00 0.00 0.00 78 1012.9
20260509024631 58 239 0.0 0.0 0.00 0.00 0.00 79 1012.9
20260509024127 58 247 0.0 0.0 0.00 0.00 0.00 78 1012.7
20260509023625 58 249 0.0 0.0 0.00 0.00 0.00 77 1012.9
20260509023122 58 230 0.0 0.0 0.00 0.00 0.00 76 1012.9
20260509022618 58 230 0.0 0.0 0.00 0.00 0.00 75 1012.9
20260509022116 58 230 0.0 0.0 0.00 0.00 0.00 78 1013.0
20260509021613 58 230 0.0 0.0 0.00 0.00 0.00 78 1012.8
20260509021110 58 230 0.0 0.0 0.00 0.00 0.00 80 1012.7
20260509020608 59 230 0.0 0.0 0.00 0.00 0.00 79 1012.8
20260509020104 59 230 0.0 0.0 0.00 0.00 0.00 75 1013.1
20260509015604 59 230 0.0 0.0 0.00 0.00 0.00 77 1012.8
20260509015100 59 230 0.0 0.0 0.00 0.00 0.00 74 1012.9
20260509014557 60 230 0.0 0.0 0.00 0.00 0.00 79 1012.9
20260509014053 60 230 0.0 0.0 0.00 0.00 0.00 76 1012.9
20260509013550 61 230 0.0 0.0 0.00 0.00 0.00 68 1012.9
20260509013046 61 230 0.0 0.0 0.00 0.00 0.00 68 1013.1
20260509012543 61 230 0.0 0.0 0.00 0.00 0.00 68 1012.8
20260509012039 62 230 0.0 0.0 0.00 0.00 0.00 66 1012.7
20260509011538 62 230 0.0 0.0 0.00 0.00 0.00 68 1012.7
20260509011034 62 230 0.0 0.0 0.00 0.00 0.00 64
20260509010532 63 230 0.0 0.0 0.00 0.00 0.00 63